Year,Month,Day,Hour,Minute,Value (Times are PST for temperature in C)
2014,11,14,00,00,-4.00
2014,11,14,00,01,-3.90
2014,11,14,00,02,-3.90
2014,11,14,00,03,-3.90
2014,11,14,00,04,-3.80
2014,11,14,00,05,-3.80
2014,11,14,00,06,-3.80
2014,11,14,00,07,-3.90
2014,11,14,00,08,-3.90
2014,11,14,00,09,-3.90
2014,11,14,00,10,-3.90
2014,11,14,00,11,-3.90
2014,11,14,00,12,-3.90
2014,11,14,00,13,-3.90
2014,11,14,00,14,-3.90
2014,11,14,00,15,-3.80
2014,11,14,00,16,-3.90
2014,11,14,00,17,-3.90
2014,11,14,00,18,-3.90
2014,11,14,00,19,-3.90
2014,11,14,00,20,-3.90
2014,11,14,00,21,-3.90
2014,11,14,00,22,-4.00
2014,11,14,00,23,-4.00
2014,11,14,00,24,-3.90
2014,11,14,00,25,-3.90
2014,11,14,00,26,-3.90
2014,11,14,00,27,-3.90
2014,11,14,00,28,-3.90
2014,11,14,00,29,-3.90
2014,11,14,00,30,-3.90
2014,11,14,00,31,-4.00
2014,11,14,00,32,-4.00
2014,11,14,00,33,-4.00
2014,11,14,00,34,-4.00
2014,11,14,00,35,-4.10
2014,11,14,00,36,-4.10
2014,11,14,00,37,-4.20
2014,11,14,00,38,-4.20
2014,11,14,00,39,-4.20
2014,11,14,00,40,-4.20
2014,11,14,00,41,-4.30
2014,11,14,00,42,-4.30
2014,11,14,00,43,-4.30
2014,11,14,00,44,-4.40
2014,11,14,00,45,-4.40
2014,11,14,00,46,-4.40
2014,11,14,00,47,-4.30
2014,11,14,00,48,-4.30
2014,11,14,00,49,-4.30
2014,11,14,00,50,-4.30
2014,11,14,00,51,-4.30
2014,11,14,00,52,-4.30
2014,11,14,00,53,-4.30
2014,11,14,00,54,-4.30
2014,11,14,00,55,-4.30
2014,11,14,00,56,-4.30
2014,11,14,00,57,-4.40
2014,11,14,00,58,-4.40
2014,11,14,00,59,-4.40
2014,11,14,01,00,-4.40
2014,11,14,01,01,-4.50
2014,11,14,01,02,-4.50
2014,11,14,01,03,-4.50
2014,11,14,01,04,-4.50
2014,11,14,01,05,-4.60
2014,11,14,01,06,-4.60
2014,11,14,01,07,-4.60
2014,11,14,01,08,-4.60
2014,11,14,01,09,-4.60
2014,11,14,01,10,-4.60
2014,11,14,01,11,-4.50
2014,11,14,01,12,-4.40
2014,11,14,01,13,-4.30
2014,11,14,01,14,-4.20
2014,11,14,01,15,-4.20
2014,11,14,01,16,-4.20
2014,11,14,01,17,-4.20
2014,11,14,01,18,-4.20
2014,11,14,01,19,-4.20
2014,11,14,01,20,-4.20
2014,11,14,01,21,-4.20
2014,11,14,01,22,-4.10
2014,11,14,01,23,-4.20
2014,11,14,01,24,-4.20
2014,11,14,01,25,-4.20
2014,11,14,01,26,-4.20
2014,11,14,01,27,-4.20
2014,11,14,01,28,-4.20
2014,11,14,01,29,-4.20
2014,11,14,01,30,-4.20
2014,11,14,01,31,-4.20
2014,11,14,01,32,-4.20
2014,11,14,01,33,-4.20
2014,11,14,01,34,-4.10
2014,11,14,01,35,-4.20
2014,11,14,01,36,-4.20
2014,11,14,01,37,-4.20
2014,11,14,01,38,-4.10
2014,11,14,01,39,-4.20
2014,11,14,01,40,-4.20
2014,11,14,01,41,-4.20
2014,11,14,01,42,-4.10
2014,11,14,01,43,-4.10
2014,11,14,01,44,-4.10
2014,11,14,01,45,-4.10
2014,11,14,01,46,-4.00
2014,11,14,01,47,-3.90
2014,11,14,01,48,-3.80
2014,11,14,01,49,-3.60
2014,11,14,01,50,-3.50
2014,11,14,01,51,-3.50
2014,11,14,01,52,-3.50
2014,11,14,01,53,-3.50
2014,11,14,01,54,-3.50
2014,11,14,01,55,-3.60
2014,11,14,01,56,-3.60
2014,11,14,01,57,-3.60
2014,11,14,01,58,-3.60
2014,11,14,01,59,-3.60
2014,11,14,02,00,-3.60
2014,11,14,02,01,-3.70
2014,11,14,02,02,-3.70
2014,11,14,02,03,-3.70
2014,11,14,02,04,-3.70
2014,11,14,02,05,-3.70
2014,11,14,02,06,-3.70
2014,11,14,02,07,-3.60
2014,11,14,02,08,-3.60
2014,11,14,02,09,-3.60
2014,11,14,02,10,-3.60
2014,11,14,02,11,-3.60
2014,11,14,02,12,-3.60
2014,11,14,02,13,-3.70
2014,11,14,02,14,-3.70
2014,11,14,02,15,-3.60
2014,11,14,02,16,-3.60
2014,11,14,02,17,-3.60
2014,11,14,02,18,-3.60
2014,11,14,02,19,-3.60
2014,11,14,02,20,-3.70
2014,11,14,02,21,-3.70
2014,11,14,02,22,-3.70
2014,11,14,02,23,-3.70
2014,11,14,02,24,-3.70
2014,11,14,02,25,-3.70
2014,11,14,02,26,-3.60
2014,11,14,02,27,-3.60
2014,11,14,02,28,-3.60
2014,11,14,02,29,-3.50
2014,11,14,02,30,-3.40
2014,11,14,02,31,-3.30
2014,11,14,02,32,-3.30
2014,11,14,02,33,-3.20
2014,11,14,02,34,-3.20
2014,11,14,02,35,-3.20
2014,11,14,02,36,-3.20
2014,11,14,02,37,-3.30
2014,11,14,02,38,-3.30
2014,11,14,02,39,-3.30
2014,11,14,02,40,-3.30
2014,11,14,02,41,-3.30
2014,11,14,02,42,-3.40
2014,11,14,02,43,-3.40
2014,11,14,02,44,-3.30
2014,11,14,02,45,-3.40
2014,11,14,02,46,-3.40
2014,11,14,02,47,-3.40
2014,11,14,02,48,-3.40
2014,11,14,02,49,-3.40
2014,11,14,02,50,-3.30
2014,11,14,02,51,-3.30
2014,11,14,02,52,-3.20
2014,11,14,02,53,-3.20
2014,11,14,02,54,-3.20
2014,11,14,02,55,-3.20
2014,11,14,02,56,-3.20
2014,11,14,02,57,-3.20
2014,11,14,02,58,-3.20
2014,11,14,02,59,-3.20
2014,11,14,03,00,-3.20
2014,11,14,03,01,-3.30
2014,11,14,03,02,-3.30
2014,11,14,03,03,-3.30
2014,11,14,03,04,-3.40
2014,11,14,03,05,-3.30
2014,11,14,03,06,-3.30
2014,11,14,03,07,-3.30
2014,11,14,03,08,-3.30
2014,11,14,03,09,-3.20
2014,11,14,03,10,-3.30
2014,11,14,03,11,-3.20
2014,11,14,03,12,-3.20
2014,11,14,03,13,-3.30
2014,11,14,03,14,-3.30
2014,11,14,03,15,-3.30
2014,11,14,03,16,-3.30
2014,11,14,03,17,-3.40
2014,11,14,03,18,-3.40
2014,11,14,03,19,-3.40
2014,11,14,03,20,-3.40
2014,11,14,03,21,-3.40
2014,11,14,03,22,-3.30
2014,11,14,03,23,-3.30
2014,11,14,03,24,-3.20
2014,11,14,03,25,-3.20
2014,11,14,03,26,-3.20
2014,11,14,03,27,-3.20
2014,11,14,03,28,-3.20
2014,11,14,03,29,-3.30
2014,11,14,03,30,-3.30
2014,11,14,03,31,-3.30
2014,11,14,03,32,-3.30
2014,11,14,03,33,-3.30
2014,11,14,03,34,-3.40
2014,11,14,03,35,-3.40
2014,11,14,03,36,-3.50
2014,11,14,03,37,-3.50
2014,11,14,03,38,-3.50
2014,11,14,03,39,-3.50
2014,11,14,03,40,-3.50
2014,11,14,03,41,-3.50
2014,11,14,03,42,-3.50
2014,11,14,03,43,-3.50
2014,11,14,03,44,-3.50
2014,11,14,03,45,-3.60
2014,11,14,03,46,-3.60
2014,11,14,03,47,-3.60
2014,11,14,03,48,-3.60
2014,11,14,03,49,-3.70
2014,11,14,03,50,-3.70
2014,11,14,03,51,-3.70
2014,11,14,03,52,-3.70
2014,11,14,03,53,-3.70
2014,11,14,03,54,-3.60
2014,11,14,03,55,-3.70
2014,11,14,03,56,-3.60
2014,11,14,03,57,-3.60
2014,11,14,03,58,-3.70
2014,11,14,03,59,-3.70
2014,11,14,04,00,-3.70
2014,11,14,04,01,-3.70
2014,11,14,04,02,-3.70
2014,11,14,04,03,-3.70
2014,11,14,04,04,-3.80
2014,11,14,04,05,-3.80
2014,11,14,04,06,-3.80
2014,11,14,04,07,-3.80
2014,11,14,04,08,-3.80
2014,11,14,04,09,-3.80
2014,11,14,04,10,-3.90
2014,11,14,04,11,-3.80
2014,11,14,04,12,-3.80
2014,11,14,04,13,-3.80
2014,11,14,04,14,-3.80
2014,11,14,04,15,-3.80
2014,11,14,04,16,-3.70
2014,11,14,04,17,-3.70
2014,11,14,04,18,-3.70
2014,11,14,04,19,-3.70
2014,11,14,04,20,-3.70
2014,11,14,04,21,-3.80
2014,11,14,04,22,-3.80
2014,11,14,04,23,-3.80
2014,11,14,04,24,-3.90
2014,11,14,04,25,-3.90
2014,11,14,04,26,-4.00
2014,11,14,04,27,-4.00
2014,11,14,04,28,-4.00
2014,11,14,04,29,-4.00
2014,11,14,04,30,-4.10
2014,11,14,04,31,-4.00
2014,11,14,04,32,-4.00
2014,11,14,04,33,-4.00
2014,11,14,04,34,-3.90
2014,11,14,04,35,-3.80
2014,11,14,04,36,-3.80
2014,11,14,04,37,-3.80
2014,11,14,04,38,-3.80
2014,11,14,04,39,-3.80
2014,11,14,04,40,-3.80
2014,11,14,04,41,-3.80
2014,11,14,04,42,-3.80
2014,11,14,04,43,-3.80
2014,11,14,04,44,-3.80
2014,11,14,04,45,-3.80
2014,11,14,04,46,-3.80
2014,11,14,04,47,-3.80
2014,11,14,04,48,-3.80
2014,11,14,04,49,-3.80
2014,11,14,04,50,-3.80
2014,11,14,04,51,-3.80
2014,11,14,04,52,-3.80
2014,11,14,04,53,-3.80
2014,11,14,04,54,-3.90
2014,11,14,04,55,-3.90
2014,11,14,04,56,-3.90
2014,11,14,04,57,-3.90
2014,11,14,04,58,-3.90
2014,11,14,04,59,-3.90
2014,11,14,05,00,-3.90
2014,11,14,05,01,-3.90
2014,11,14,05,02,-3.90
2014,11,14,05,03,-3.90
2014,11,14,05,04,-3.80
2014,11,14,05,05,-3.80
2014,11,14,05,06,-3.70
2014,11,14,05,07,-3.60
2014,11,14,05,08,-3.60
2014,11,14,05,09,-3.50
2014,11,14,05,10,-3.40
2014,11,14,05,11,-3.40
2014,11,14,05,12,-3.40
2014,11,14,05,13,-3.40
2014,11,14,05,14,-3.40
2014,11,14,05,15,-3.40
2014,11,14,05,16,-3.30
2014,11,14,05,17,-3.20
2014,11,14,05,18,-3.20
2014,11,14,05,19,-3.20
2014,11,14,05,20,-3.20
2014,11,14,05,21,-3.20
2014,11,14,05,22,-3.20
2014,11,14,05,23,-3.20
2014,11,14,05,24,-3.10
2014,11,14,05,25,-3.10
2014,11,14,05,26,-2.90
2014,11,14,05,27,-2.90
2014,11,14,05,28,-2.80
2014,11,14,05,29,-2.70
2014,11,14,05,30,-2.70
2014,11,14,05,31,-2.70
2014,11,14,05,32,-2.70
2014,11,14,05,33,-2.80
2014,11,14,05,34,-2.80
2014,11,14,05,35,-2.90
2014,11,14,05,36,-2.90
2014,11,14,05,37,-3.00
2014,11,14,05,38,-3.00
2014,11,14,05,39,-3.00
2014,11,14,05,40,-2.90
2014,11,14,05,41,-2.90
2014,11,14,05,42,-2.80
2014,11,14,05,43,-2.80
2014,11,14,05,44,-2.80
2014,11,14,05,45,-2.80
2014,11,14,05,46,-2.80
2014,11,14,05,47,-2.80
2014,11,14,05,48,-2.80
2014,11,14,05,49,-2.80
2014,11,14,05,50,-2.80
2014,11,14,05,51,-2.70
2014,11,14,05,52,-2.60
2014,11,14,05,53,-2.50
2014,11,14,05,54,-2.40
2014,11,14,05,55,-2.40
2014,11,14,05,56,-2.30
2014,11,14,05,57,-2.20
2014,11,14,05,58,-2.20
2014,11,14,05,59,-2.20
2014,11,14,06,00,-2.20
2014,11,14,06,01,-2.10
2014,11,14,06,02,-2.10
2014,11,14,06,03,-2.10
2014,11,14,06,04,-2.00
2014,11,14,06,05,-2.00
2014,11,14,06,06,-2.00
2014,11,14,06,07,-2.00
2014,11,14,06,08,-2.00
2014,11,14,06,09,-2.00
2014,11,14,06,10,-2.00
2014,11,14,06,11,-2.10
2014,11,14,06,12,-2.10
2014,11,14,06,13,-2.10
2014,11,14,06,14,-2.10
2014,11,14,06,15,-2.20
2014,11,14,06,16,-2.20
2014,11,14,06,17,-2.20
2014,11,14,06,18,-2.20
2014,11,14,06,19,-2.20
2014,11,14,06,20,-2.20
2014,11,14,06,21,-2.20
2014,11,14,06,22,-2.20
2014,11,14,06,23,-2.20
2014,11,14,06,24,-2.20
2014,11,14,06,25,-2.20
2014,11,14,06,26,-2.20
2014,11,14,06,27,-2.30
2014,11,14,06,28,-2.30
2014,11,14,06,29,-2.30
2014,11,14,06,30,-2.30
2014,11,14,06,31,-2.40
2014,11,14,06,32,-2.40
2014,11,14,06,33,-2.40
2014,11,14,06,34,-2.50
2014,11,14,06,35,-2.50
2014,11,14,06,36,-2.60
2014,11,14,06,37,-2.60
2014,11,14,06,38,-2.60
2014,11,14,06,39,-2.50
2014,11,14,06,40,-2.40
2014,11,14,06,41,-2.40
2014,11,14,06,42,-2.30
2014,11,14,06,43,-2.30
2014,11,14,06,44,-2.30
2014,11,14,06,45,-2.30
2014,11,14,06,46,-2.30
2014,11,14,06,47,-2.30
2014,11,14,06,48,-2.30
2014,11,14,06,49,-2.30
2014,11,14,06,50,-2.40
2014,11,14,06,51,-2.40
2014,11,14,06,52,-2.40
2014,11,14,06,53,-2.40
2014,11,14,06,54,-2.30
2014,11,14,06,55,-2.30
2014,11,14,06,56,-2.30
2014,11,14,06,57,-2.30
2014,11,14,06,58,-2.20
2014,11,14,06,59,-2.20
2014,11,14,07,00,-2.20
2014,11,14,07,01,-2.20
2014,11,14,07,02,-2.30
2014,11,14,07,03,-2.30
2014,11,14,07,04,-2.30
2014,11,14,07,05,-2.30
2014,11,14,07,06,-2.40
2014,11,14,07,07,-2.40
2014,11,14,07,08,-2.40
2014,11,14,07,09,-2.40
2014,11,14,07,10,-2.40
2014,11,14,07,11,-2.40
2014,11,14,07,12,-2.40
2014,11,14,07,13,-2.50
2014,11,14,07,14,-2.50
2014,11,14,07,15,-2.50
2014,11,14,07,16,-2.60
2014,11,14,07,17,-2.60
2014,11,14,07,18,-2.60
2014,11,14,07,19,-2.70
2014,11,14,07,20,-2.70
2014,11,14,07,21,-2.80
2014,11,14,07,22,-2.80
2014,11,14,07,23,-2.80
2014,11,14,07,24,-2.80
2014,11,14,07,25,-2.80
2014,11,14,07,26,-2.80
2014,11,14,07,27,-2.80
2014,11,14,07,28,-2.70
2014,11,14,07,29,-2.70
2014,11,14,07,30,-2.70
2014,11,14,07,31,-2.70
2014,11,14,07,32,-2.70
2014,11,14,07,33,-2.70
2014,11,14,07,34,-2.70
2014,11,14,07,35,-2.70
2014,11,14,07,36,-2.70
2014,11,14,07,37,-2.80
2014,11,14,07,38,-2.80
2014,11,14,07,39,-2.80
2014,11,14,07,40,-2.80
2014,11,14,07,41,-2.80
2014,11,14,07,42,-2.80
2014,11,14,07,43,-2.80
2014,11,14,07,44,-2.80
2014,11,14,07,45,-2.90
2014,11,14,07,46,-2.90
2014,11,14,07,47,-2.90
2014,11,14,07,48,-3.00
2014,11,14,07,49,-3.00
2014,11,14,07,50,-3.00
2014,11,14,07,51,-3.10
2014,11,14,07,52,-3.10
2014,11,14,07,53,-3.10
2014,11,14,07,54,-3.20
2014,11,14,07,55,-3.20
2014,11,14,07,56,-3.20
2014,11,14,07,57,-3.30
2014,11,14,07,58,-3.30
2014,11,14,07,59,-3.40
2014,11,14,08,00,-3.40
2014,11,14,08,01,-3.50
2014,11,14,08,02,-3.50
2014,11,14,08,03,-3.60
2014,11,14,08,04,-3.60
2014,11,14,08,05,-3.60
2014,11,14,08,06,-3.60
2014,11,14,08,07,-3.70
2014,11,14,08,08,-3.70
2014,11,14,08,09,-3.60
2014,11,14,08,10,-3.50
2014,11,14,08,11,-3.30
2014,11,14,08,12,-3.20
2014,11,14,08,13,-3.10
2014,11,14,08,14,-3.00
2014,11,14,08,15,-3.00
2014,11,14,08,16,-2.90
2014,11,14,08,17,-2.80
2014,11,14,08,18,-2.80
2014,11,14,08,19,-2.80
2014,11,14,08,20,-2.80
2014,11,14,08,21,-2.80
2014,11,14,08,22,-2.80
2014,11,14,08,23,-2.80
2014,11,14,08,24,-2.80
2014,11,14,08,25,-2.80
2014,11,14,08,26,-2.70
2014,11,14,08,27,-2.70
2014,11,14,08,28,-2.60
2014,11,14,08,29,-2.50
2014,11,14,08,30,-2.40
2014,11,14,08,31,-2.30
2014,11,14,08,32,-2.10
2014,11,14,08,33,-2.00
2014,11,14,08,34,-1.80
2014,11,14,08,35,-1.70
2014,11,14,08,36,-1.50
2014,11,14,08,37,-1.40
2014,11,14,08,38,-1.20
2014,11,14,08,39,-1.10
2014,11,14,08,40,-1.00
2014,11,14,08,41,-0.80
2014,11,14,08,42,-0.70
2014,11,14,08,43,-0.60
2014,11,14,08,44,-0.60
2014,11,14,08,45,-0.50
2014,11,14,08,46,-0.50
2014,11,14,08,47,-0.40
2014,11,14,08,48,-0.30
2014,11,14,08,49,-0.30
2014,11,14,08,50,-0.20
2014,11,14,08,51,-0.20
2014,11,14,08,52,-0.20
2014,11,14,08,53,-0.20
2014,11,14,08,54,-0.20
2014,11,14,08,55,-0.20
2014,11,14,08,56,-0.30
2014,11,14,08,57,-0.30
2014,11,14,08,58,-0.30
2014,11,14,08,59,-0.30
2014,11,14,09,00,-0.40
2014,11,14,09,01,-0.40
2014,11,14,09,02,-0.40
2014,11,14,09,03,-0.20
2014,11,14,09,04,-0.20
2014,11,14,09,05,-0.10
2014,11,14,09,06,0.00
2014,11,14,09,07,0.10
2014,11,14,09,08,0.20
2014,11,14,09,09,0.30
2014,11,14,09,10,0.30
2014,11,14,09,11,0.40
2014,11,14,09,12,0.50
2014,11,14,09,13,0.60
2014,11,14,09,14,0.80
2014,11,14,09,15,0.90
2014,11,14,09,16,1.00
2014,11,14,09,17,1.10
2014,11,14,09,18,1.20
2014,11,14,09,19,1.20
2014,11,14,09,20,1.30
2014,11,14,09,21,1.30
2014,11,14,09,22,1.30
2014,11,14,09,23,1.40
2014,11,14,09,24,1.50
2014,11,14,09,25,1.60
2014,11,14,09,26,1.70
2014,11,14,09,27,1.80
2014,11,14,09,28,1.80
2014,11,14,09,29,1.90
2014,11,14,09,30,1.90
2014,11,14,09,31,2.00
2014,11,14,09,32,2.00
2014,11,14,09,33,2.10
2014,11,14,09,34,2.10
2014,11,14,09,35,2.10
2014,11,14,09,36,2.20
2014,11,14,09,37,2.20
2014,11,14,09,38,2.30
2014,11,14,09,39,2.30
2014,11,14,09,40,2.30
2014,11,14,09,41,2.40
2014,11,14,09,42,2.40
2014,11,14,09,43,2.50
2014,11,14,09,44,2.60
2014,11,14,09,45,2.70
2014,11,14,09,46,2.80
2014,11,14,09,47,2.90
2014,11,14,09,48,3.00
2014,11,14,09,49,3.10
2014,11,14,09,50,3.20
2014,11,14,09,51,3.30
2014,11,14,09,52,3.40
2014,11,14,09,53,3.50
2014,11,14,09,54,3.50
2014,11,14,09,55,3.60
2014,11,14,09,56,3.60
2014,11,14,09,57,3.70
2014,11,14,09,58,3.70
2014,11,14,09,59,3.80
2014,11,14,10,00,3.90
2014,11,14,10,01,3.90
2014,11,14,10,02,3.90
2014,11,14,10,03,3.90
2014,11,14,10,04,3.90
2014,11,14,10,05,4.00
2014,11,14,10,06,4.00
2014,11,14,10,07,4.00
2014,11,14,10,08,4.00
2014,11,14,10,09,4.00
2014,11,14,10,10,4.10
2014,11,14,10,11,4.10
2014,11,14,10,12,4.10
2014,11,14,10,13,4.10
2014,11,14,10,14,4.20
2014,11,14,10,15,4.20
2014,11,14,10,16,4.20
2014,11,14,10,17,4.20
2014,11,14,10,18,4.20
2014,11,14,10,19,4.20
2014,11,14,10,20,4.20
2014,11,14,10,21,4.20
2014,11,14,10,22,4.30
2014,11,14,10,23,4.30
2014,11,14,10,24,4.30
2014,11,14,10,25,4.30
2014,11,14,10,26,4.30
2014,11,14,10,27,4.30
2014,11,14,10,28,4.30
2014,11,14,10,29,4.30
2014,11,14,10,30,4.40
2014,11,14,10,31,4.40
2014,11,14,10,32,4.40
2014,11,14,10,33,4.50
2014,11,14,10,34,4.50
2014,11,14,10,35,4.50
2014,11,14,10,36,4.60
2014,11,14,10,37,4.60
2014,11,14,10,38,4.60
2014,11,14,10,39,4.60
2014,11,14,10,40,4.60
2014,11,14,10,41,4.70
2014,11,14,10,42,4.70
2014,11,14,10,43,4.70
2014,11,14,10,44,4.70
2014,11,14,10,45,4.70
2014,11,14,10,46,4.70
2014,11,14,10,47,4.70
2014,11,14,10,48,4.70
2014,11,14,10,49,4.80
2014,11,14,10,50,4.70
2014,11,14,10,51,4.70
2014,11,14,10,52,4.70
2014,11,14,10,53,4.70
2014,11,14,10,54,4.70
2014,11,14,10,55,4.70
2014,11,14,10,56,4.70
2014,11,14,10,57,4.70
2014,11,14,10,58,4.80
2014,11,14,10,59,4.80
2014,11,14,11,00,4.80
2014,11,14,11,01,4.80
2014,11,14,11,02,4.80
2014,11,14,11,03,4.80
2014,11,14,11,04,4.80
2014,11,14,11,05,4.80
2014,11,14,11,06,4.80
2014,11,14,11,07,4.80
2014,11,14,11,08,4.80
2014,11,14,11,09,4.80
2014,11,14,11,10,4.80
2014,11,14,11,11,4.80
2014,11,14,11,12,4.80
2014,11,14,11,13,4.90
2014,11,14,11,14,4.90
2014,11,14,11,15,4.90
2014,11,14,11,16,4.90
2014,11,14,11,17,5.00
2014,11,14,11,18,5.10
2014,11,14,11,19,5.10
2014,11,14,11,20,5.10
2014,11,14,11,21,5.10
2014,11,14,11,22,5.10
2014,11,14,11,23,5.10
2014,11,14,11,24,5.00
2014,11,14,11,25,5.00
2014,11,14,11,26,5.00
2014,11,14,11,27,4.90
2014,11,14,11,28,4.90
2014,11,14,11,29,4.90
2014,11,14,11,30,5.00
2014,11,14,11,31,5.00
2014,11,14,11,32,5.00
2014,11,14,11,33,5.10
2014,11,14,11,34,5.00
2014,11,14,11,35,5.00
2014,11,14,11,36,5.10
2014,11,14,11,37,5.10
2014,11,14,11,38,5.10
2014,11,14,11,39,5.10
2014,11,14,11,40,5.10
2014,11,14,11,41,5.10
2014,11,14,11,42,5.10
2014,11,14,11,43,5.20
2014,11,14,11,44,5.20
2014,11,14,11,45,5.20
2014,11,14,11,46,5.20
2014,11,14,11,47,5.20
2014,11,14,11,48,5.20
2014,11,14,11,49,5.30
2014,11,14,11,50,5.30
2014,11,14,11,51,5.30
2014,11,14,11,52,5.30
2014,11,14,11,53,5.30
2014,11,14,11,54,5.30
2014,11,14,11,55,5.30
2014,11,14,11,56,5.30
2014,11,14,11,57,5.30
2014,11,14,11,58,5.30
2014,11,14,11,59,5.40
2014,11,14,12,00,5.40
2014,11,14,12,01,5.50
2014,11,14,12,02,5.50
2014,11,14,12,03,5.50
2014,11,14,12,04,5.40
2014,11,14,12,05,5.40
2014,11,14,12,06,5.40
2014,11,14,12,07,5.40
2014,11,14,12,08,5.40
2014,11,14,12,09,5.40
2014,11,14,12,10,5.40
2014,11,14,12,11,5.50
2014,11,14,12,12,5.40
2014,11,14,12,13,5.40
2014,11,14,12,14,5.40
2014,11,14,12,15,5.40
2014,11,14,12,16,5.50
2014,11,14,12,17,5.50
2014,11,14,12,18,5.50
2014,11,14,12,19,5.50
2014,11,14,12,20,5.50
2014,11,14,12,21,5.50
2014,11,14,12,22,5.50
2014,11,14,12,23,5.50
2014,11,14,12,24,5.50
2014,11,14,12,25,5.50
2014,11,14,12,26,5.50
2014,11,14,12,27,5.40
2014,11,14,12,28,5.40
2014,11,14,12,29,5.40
2014,11,14,12,30,5.40
2014,11,14,12,31,5.50
2014,11,14,12,32,5.50
2014,11,14,12,33,5.60
2014,11,14,12,34,5.70
2014,11,14,12,35,5.70
2014,11,14,12,36,5.70
2014,11,14,12,37,5.80
2014,11,14,12,38,5.80
2014,11,14,12,39,5.80
2014,11,14,12,40,5.80
2014,11,14,12,41,5.80
2014,11,14,12,42,5.80
2014,11,14,12,43,5.80
2014,11,14,12,44,5.80
2014,11,14,12,45,5.80
2014,11,14,12,46,5.80
2014,11,14,12,47,5.80
2014,11,14,12,48,5.80
2014,11,14,12,49,5.80
2014,11,14,12,50,5.80
2014,11,14,12,51,5.70
2014,11,14,12,52,5.70
2014,11,14,12,53,5.60
2014,11,14,12,54,5.60
2014,11,14,12,55,5.60
2014,11,14,12,56,5.60
2014,11,14,12,57,5.70
2014,11,14,12,58,5.70
2014,11,14,12,59,5.70
2014,11,14,13,00,5.70
2014,11,14,13,01,5.70
2014,11,14,13,02,5.70
2014,11,14,13,03,5.70
2014,11,14,13,04,5.70
2014,11,14,13,05,5.70
2014,11,14,13,06,5.70
2014,11,14,13,07,5.70
2014,11,14,13,08,5.70
2014,11,14,13,09,5.70
2014,11,14,13,10,5.70
2014,11,14,13,11,5.70
2014,11,14,13,12,5.80
2014,11,14,13,13,5.80
2014,11,14,13,14,5.70
2014,11,14,13,15,5.70
2014,11,14,13,16,5.70
2014,11,14,13,17,5.70
2014,11,14,13,18,5.70
2014,11,14,13,19,5.70
2014,11,14,13,20,5.70
2014,11,14,13,21,5.70
2014,11,14,13,22,5.80
2014,11,14,13,23,5.80
2014,11,14,13,24,5.80
2014,11,14,13,25,5.80
2014,11,14,13,26,5.80
2014,11,14,13,27,5.80
2014,11,14,13,28,5.80
2014,11,14,13,29,5.80
2014,11,14,13,30,5.80
2014,11,14,13,31,5.80
2014,11,14,13,32,5.80
2014,11,14,13,33,5.70
2014,11,14,13,34,5.70
2014,11,14,13,35,5.70
2014,11,14,13,36,5.70
2014,11,14,13,37,5.70
2014,11,14,13,38,5.70
2014,11,14,13,39,5.70
2014,11,14,13,40,5.70
2014,11,14,13,41,5.70
2014,11,14,13,42,5.70
2014,11,14,13,43,5.70
2014,11,14,13,44,5.70
2014,11,14,13,45,5.80
2014,11,14,13,46,5.80
2014,11,14,13,47,5.80
2014,11,14,13,48,5.90
2014,11,14,13,49,5.90
2014,11,14,13,50,5.90
2014,11,14,13,51,5.90
2014,11,14,13,52,5.90
2014,11,14,13,53,5.90
2014,11,14,13,54,5.90
2014,11,14,13,55,5.80
2014,11,14,13,56,5.80
2014,11,14,13,57,5.80
2014,11,14,13,58,5.80
2014,11,14,13,59,5.70
2014,11,14,14,00,5.60
2014,11,14,14,01,5.60
2014,11,14,14,02,5.60
2014,11,14,14,03,5.50
2014,11,14,14,04,5.60
2014,11,14,14,05,5.60
2014,11,14,14,06,5.60
2014,11,14,14,07,5.70
2014,11,14,14,08,5.70
2014,11,14,14,09,5.70
2014,11,14,14,10,5.70
2014,11,14,14,11,5.70
2014,11,14,14,12,5.70
2014,11,14,14,13,5.70
2014,11,14,14,14,5.60
2014,11,14,14,15,5.60
2014,11,14,14,16,5.60
2014,11,14,14,17,5.60
2014,11,14,14,18,5.60
2014,11,14,14,19,5.60
2014,11,14,14,20,5.60
2014,11,14,14,21,5.60
2014,11,14,14,22,5.60
2014,11,14,14,23,5.60
2014,11,14,14,24,5.60
2014,11,14,14,25,5.60
2014,11,14,14,26,5.60
2014,11,14,14,27,5.70
2014,11,14,14,28,5.60
2014,11,14,14,29,5.60
2014,11,14,14,30,5.60
2014,11,14,14,31,5.60
2014,11,14,14,32,5.60
2014,11,14,14,33,5.60
2014,11,14,14,34,5.60
2014,11,14,14,35,5.60
2014,11,14,14,36,5.60
2014,11,14,14,37,5.60
2014,11,14,14,38,5.60
2014,11,14,14,39,5.60
2014,11,14,14,40,5.50
2014,11,14,14,41,5.50
2014,11,14,14,42,5.50
2014,11,14,14,43,5.50
2014,11,14,14,44,5.50
2014,11,14,14,45,5.50
2014,11,14,14,46,5.50
2014,11,14,14,47,5.50
2014,11,14,14,48,5.50
2014,11,14,14,49,5.40
2014,11,14,14,50,5.50
2014,11,14,14,51,5.50
2014,11,14,14,52,5.50
2014,11,14,14,53,5.50
2014,11,14,14,54,5.50
2014,11,14,14,55,5.50
2014,11,14,14,56,5.50
2014,11,14,14,57,5.50
2014,11,14,14,58,5.50
2014,11,14,14,59,5.50
2014,11,14,15,00,5.50
2014,11,14,15,01,5.40
2014,11,14,15,02,5.40
2014,11,14,15,03,5.40
2014,11,14,15,04,5.40
2014,11,14,15,05,5.40
2014,11,14,15,06,5.40
2014,11,14,15,07,5.40
2014,11,14,15,08,5.40
2014,11,14,15,09,5.40
2014,11,14,15,10,5.40
2014,11,14,15,11,5.40
2014,11,14,15,12,5.50
2014,11,14,15,13,5.50
2014,11,14,15,14,5.60
2014,11,14,15,15,5.60
2014,11,14,15,16,5.60
2014,11,14,15,17,5.60
2014,11,14,15,18,5.60
2014,11,14,15,19,5.60
2014,11,14,15,20,5.60
2014,11,14,15,21,5.60
2014,11,14,15,22,5.60
2014,11,14,15,23,5.70
2014,11,14,15,24,5.70
2014,11,14,15,25,5.70
2014,11,14,15,26,5.70
2014,11,14,15,27,5.70
2014,11,14,15,28,5.80
2014,11,14,15,29,5.80
2014,11,14,15,30,5.80
2014,11,14,15,31,5.80
2014,11,14,15,32,5.80
2014,11,14,15,33,5.80
2014,11,14,15,34,5.80
2014,11,14,15,35,5.80
2014,11,14,15,36,5.80
2014,11,14,15,37,5.80
2014,11,14,15,38,5.70
2014,11,14,15,39,5.70
2014,11,14,15,40,5.60
2014,11,14,15,41,5.60
2014,11,14,15,42,5.60
2014,11,14,15,43,5.60
2014,11,14,15,44,5.50
2014,11,14,15,45,5.50
2014,11,14,15,46,5.40
2014,11,14,15,47,5.40
2014,11,14,15,48,5.40
2014,11,14,15,49,5.40
2014,11,14,15,50,5.40
2014,11,14,15,51,5.40
2014,11,14,15,52,5.40
2014,11,14,15,53,5.40
2014,11,14,15,54,5.40
2014,11,14,15,55,5.40
2014,11,14,15,56,5.40
2014,11,14,15,57,5.40
2014,11,14,15,58,5.40
2014,11,14,15,59,5.30
2014,11,14,16,00,5.30
2014,11,14,16,01,5.20
2014,11,14,16,02,5.20
2014,11,14,16,03,5.00
2014,11,14,16,04,5.00
2014,11,14,16,05,4.90
2014,11,14,16,06,4.90
2014,11,14,16,07,4.80
2014,11,14,16,08,4.80
2014,11,14,16,09,4.80
2014,11,14,16,10,4.70
2014,11,14,16,11,4.70
2014,11,14,16,12,4.60
2014,11,14,16,13,4.50
2014,11,14,16,14,4.40
2014,11,14,16,15,4.30
2014,11,14,16,16,4.20
2014,11,14,16,17,4.10
2014,11,14,16,18,4.00
2014,11,14,16,19,3.90
2014,11,14,16,20,3.80
2014,11,14,16,21,3.70
2014,11,14,16,22,3.60
2014,11,14,16,23,3.50
2014,11,14,16,24,3.40
2014,11,14,16,25,3.30
2014,11,14,16,26,3.20
2014,11,14,16,27,3.10
2014,11,14,16,28,3.00
2014,11,14,16,29,3.00
2014,11,14,16,30,2.90
2014,11,14,16,31,2.80
2014,11,14,16,32,2.80
2014,11,14,16,33,2.70
2014,11,14,16,34,2.70
2014,11,14,16,35,2.60
2014,11,14,16,36,2.50
2014,11,14,16,37,2.50
2014,11,14,16,38,2.40
2014,11,14,16,39,2.30
2014,11,14,16,40,2.30
2014,11,14,16,41,2.20
2014,11,14,16,42,2.20
2014,11,14,16,43,2.10
2014,11,14,16,44,2.10
2014,11,14,16,45,1.90
2014,11,14,16,46,1.80
2014,11,14,16,47,1.80
2014,11,14,16,48,1.70
2014,11,14,16,49,1.70
2014,11,14,16,50,1.60
2014,11,14,16,51,1.60
2014,11,14,16,52,1.50
2014,11,14,16,53,1.40
2014,11,14,16,54,1.40
2014,11,14,16,55,1.30
2014,11,14,16,56,1.30
2014,11,14,16,57,1.30
2014,11,14,16,58,1.30
2014,11,14,16,59,1.20
2014,11,14,17,00,1.20
2014,11,14,17,01,1.10
2014,11,14,17,02,1.00
2014,11,14,17,03,1.00
2014,11,14,17,04,0.90
2014,11,14,17,05,0.90
2014,11,14,17,06,0.80
2014,11,14,17,07,0.80
2014,11,14,17,08,0.80
2014,11,14,17,09,0.70
2014,11,14,17,10,0.70
2014,11,14,17,11,0.60
2014,11,14,17,12,0.60
2014,11,14,17,13,0.60
2014,11,14,17,14,0.50
2014,11,14,17,15,0.50
2014,11,14,17,16,0.40
2014,11,14,17,17,0.40
2014,11,14,17,18,0.30
2014,11,14,17,19,0.30
2014,11,14,17,20,0.30
2014,11,14,17,21,0.20
2014,11,14,17,22,0.20
2014,11,14,17,23,0.20
2014,11,14,17,24,0.10
2014,11,14,17,25,0.10
2014,11,14,17,26,0.00
2014,11,14,17,27,-0.10
2014,11,14,17,28,-0.10
2014,11,14,17,29,-0.20
2014,11,14,17,30,-0.20
2014,11,14,17,31,-0.20
2014,11,14,17,32,-0.30
2014,11,14,17,33,-0.30
2014,11,14,17,34,-0.40
2014,11,14,17,35,-0.40
2014,11,14,17,36,-0.40
2014,11,14,17,37,-0.50
2014,11,14,17,38,-0.50
2014,11,14,17,39,-0.60
2014,11,14,17,40,-0.60
2014,11,14,17,41,-0.70